Orbital Elements
Epoch 2010 Dec. 30.0 TT = JDT 2455560.5
T 2011 Jan. 4.14111 TT MPC
q 1.4843894 (2000.0) P Q
n 0.12491562 Peri. 47.32761 -0.18166585 -0.96450152
a 3.9633115 Node 54.12582 +0.81881838 -0.25629883
e 0.6254674 Incl. 13.68186 +0.54454933 +0.06362179
P 7.89
From 496 observations 2002 Nov. 5-2011 Jan. 14, mean residual 0".4.
|